This is the latest recevied weather packets stored in our database for station/object KC4JIR. If no packets are shown the sender has not sent any weather packets the latest 10 day(s).
| Time | Temp. | Humidity | Pressure | Rain* | Wind** | Luminosity | Snow |
|---|---|---|---|---|---|---|---|
| 1777627319 | 13.89° C | 84% | 1009.9 hPa | 0 mm | - | 0 W/m² | - |
| 1777627016 | 14.44° C | 85% | 1009.5 hPa | 0 mm | - | 0 W/m² | - |
| 1777626712 | 14.44° C | 81% | 1009.6 hPa | 0 mm | - | 0 W/m² | - |
| 1777626409 | 14.44° C | 80% | 1009.4 hPa | 0 mm | - | 0 W/m² | - |
| 1777626107 | 15° C | 79% | 1009.5 hPa | 0 mm | - | 0 W/m² | - |
| 1777625802 | 15° C | 80% | 1009.5 hPa | 0 mm | - | 0 W/m² | - |
| 1777625499 | 15° C | 78% | 1009.5 hPa | 0 mm | - | 0 W/m² | - |
| 1777625194 | 15.56° C | 77% | 1009.2 hPa | 0 mm | - | 0 W/m² | - |
| 1777624891 | 15.56° C | 79% | 1009.4 hPa | 0 mm | - | 0 W/m² | - |
| 1777624587 | 15.56° C | 75% | 1009.4 hPa | 0 mm | - | 0 W/m² | - |
| 1777624287 | 15.56° C | 75% | 1009.5 hPa | 0 mm | - | 0 W/m² | - |
| 1777623986 | 16.11° C | 74% | 1009.6 hPa | 0 mm | - | 0 W/m² | - |
| 1777623682 | 16.11° C | 74% | 1009.7 hPa | 0 mm | - | 0 W/m² | - |
| 1777623380 | 16.11° C | 73% | 1009.7 hPa | 0 mm | - | 0 W/m² | - |
| 1777623076 | 16.11° C | 74% | 1009.6 hPa | 0 mm | - | 0 W/m² | - |
| 1777622774 | 16.11° C | 73% | 1009.4 hPa | 0 mm | - | 0 W/m² | - |
| 1777622470 | 16.11° C | 73% | 1009.5 hPa | 0 mm | - | 0 W/m² | - |
| 1777622166 | 16.11° C | 74% | 1009.5 hPa | 0 mm | - | 0 W/m² | - |
| 1777621862 | 16.11° C | 77% | 1009.2 hPa | 0 mm | - | 0 W/m² | - |
| 1777621558 | 16.11° C | 75% | 1009.2 hPa | 0 mm | - | 0 W/m² | - |
| 1777621255 | 16.67° C | 77% | 1009.2 hPa | 0 mm | - | 0 W/m² | - |
| 1777620951 | 16.67° C | 74% | 1009 hPa | 0 mm | - | 0 W/m² | - |
| 1777620647 | 16.67° C | 70% | 1008.9 hPa | 0 mm | - | 0 W/m² | - |
| 1777620343 | 16.67° C | 70% | 1008.9 hPa | 0 mm | - | 0 W/m² | - |
| 1777620040 | 16.67° C | 72% | 1009 hPa | 0 mm | - | 0 W/m² | - |
* Rain latest hour (hover to see other rain measurements)
** Current wind speed in m/s (hover to see current wind gust speed)